Regional Weather Roundup
Issued by NWS Grand Forks, ND

Home | Current Version | Previous Version | Text Only | Print | Product List | Glossary Off
Versions: 1 2 3 4 5 6 7 8 9 10 11 12 13 14 15 16 17 18 19 20 21 22 23 24 25 26 27 28 29 30 31 32 33 34 35 36 37 38 39 40 41 42 43 44 45 46 47 48 49 50

000
ASUS43 KFGF 071310
RWRFGF
PRAIRIE TO PINES  WEATHER ROUNDUP
NATIONAL WEATHER SERVICE EASTERN NORTH DAKOTA/GRAND FORKS ND
700 AM CST SUN FEB 07 2016

 **SATELLITE DATA USED TO AUGMENT SKY COVER AT AUTOMATED STATIONS**
 *****  WEATHER ACROSS EASTERN NORTH DAKOTA  *****

CITY           SKY/WX    TMP DP  RH WIND       PRES   REMARKS
GRAND FORKS    CLOUDY    36  28  73 NW20G30   29.51R
GRAND FRKS AFB MOCLDY    35  28  75 W24G30    29.51R WCI  22
GRAND FRKS NWS   N/A     34 N/A N/A NW10        N/A
DEVILS LAKE    CLOUDY    34  29  82 W25G35    29.57R WCI  21
FARGO          MOCLDY    36  27  69 W21       29.59R
WAHPETON ARPT  PTSUNNY   34  27  75 W24       29.65S WCI  21
$$

 ***** WEATHER ACROSS CENTRAL AND WESTERN NORTH DAKOTA  *****

CITY           SKY/WX    TMP DP  RH WIND       PRES   REMARKS
BISMARCK       FLURRIES  36  27  69 W25G33    29.79R
MINOT          FLURRIES  35  24  64 W39G49    29.71R WCI  20
JAMESTOWN      MOCLDY    34  24  67 W29G41    29.62F WCI  20
MINOT AFB      CLOUDY    32  29  86 NW32G43   29.70R DRFTSNOWWCI  18
GARRISON         N/A     32  28  85 NW35G40   29.74R WCI  17
WILLISTON      MIX PCPN  32  24  72 NW36G48   29.92R WCI  16
DICKINSON      LGT SNOW  27  23  85 NW30G41   29.87R FOG     WCI  11
HETTINGER      CLOUDY    32  16  51 NW38G51   29.94R WCI  16
$$

 *****  OTHER AIRPORT OBSERVATIONS IN OUR AREA  *****

CITY           SKY/WX    TMP DP  RH WIND       PRES   REMARKS
WALHALLA       LGT RAIN  32  32 100 N17G26    29.52R WCI  21
GRAFTON AIRPOR CLOUDY    36  30  80 NW24      29.52R
VALLEY CITY AR FLURRIES  32  25  74 W25G33    29.63R WCI  19
CANDO          NOT AVBL
CAVALIER APRT  LGT RAIN  32  30  93 N15G21    29.51R WCI  22
GWINNER        FAIR      36  28  75 W18G24    29.70S
SHEYENNE NWR     N/A     36  25  64 W16       29.95S
ROLLA          MIX PCPN  32  32 100 NW25G38   29.56R WCI  19
 ***** THE ABOVE OBSERVATIONS ARE NON NWS ARE NOT QUALITY
       CONTROLLED AND MAY MIS-REPORT RAIN FOR SNOW...
$$

  *****  WEATHER ACROSS NORTHERN MINNESOTA  *****

CITY           SKY/WX    TMP DP  RH WIND       PRES   REMARKS
FLAG ISLAND    MIX PCPN  30  27  86 W16       29.36R WCI  19
WARROAD        LGT SNOW  30  27  86 W15       29.40R WCI  19
ROSEAU         LGT SNOW  30  27  86 W14G23    29.41R WCI  20
HALLOCK        CLOUDY    32  30  93 NW15      29.49R WCI  22
THF RVR FALLS  CLOUDY    34  30  86 W16       29.48S WCI  23
BAUDETTE       CLOUDY    33  27  78 W13       29.36R WCI  24
WASKISH        CLOUDY    34  30  86 W14G24    29.40S WCI  24
CROOKSTON      FLURRIES  34  32  93 NW15G21   29.52R WCI  24
STEPHEN NDAWN    N/A     34  32  93 NW12        N/A
GREENBUSH NDAW   N/A     30  28  93 W13         N/A  WCI  20
$$
  *****  WEATHER ACROSS CENTRAL AND WEST MINNESOTA  *****

CITY           SKY/WX    TMP DP  RH WIND       PRES   REMARKS
FOSSTON        NOT AVBL
BEMIDJI        LGT SNOW  32  32  99 W14       29.45S WCI  22
PARK RAPIDS    LGT SNOW  34  32  92 W21G30    29.49R FOG     WCI  22
ELBOW LAKE     FAIR      33  28  79 NW24G30   29.64R HAZE    WCI  21
WADENA         MIX PCPN  32  30  93 W13G20    29.55R WCI  22
DETROIT LAKES  CLOUDY    34  32  93 W16G24    29.56R WCI  23
MOORHEAD       MOCLDY    36  27  69 W23G33    29.61R
FERGUS FALLS   PTCLDY    34  28  80 W22G30    29.64S WCI  22
MORRIS MN      CLEAR     36  27  69 W20G29    29.65S
STAPLES        FLURRIES  32  30  93 W22G29    29.54R WCI  19
$$
  *****  WEATHER ELSEWHERE ACROSS MINNESOTA  *****

CITY           SKY/WX    TMP DP  RH WIND       PRES   REMARKS
DULUTH         FRZ DRZL  32  30  92 SW9       29.44F FOG     WCI  24
INTRNTL FALLS  LGT SNOW  33  32  96 VRB3      29.37R FOG
ELY            LGT SNOW  32  30  93 S3        29.41F
CLOQUET        FLURRIES  34  30  86 SW8       29.45S
WHEATON        PTCLDY    37  28  70 W20G32    29.69S
BRAINERD       FLURRIES  34  31  88 W15       29.51R WCI  24
HIBBING        LGT SNOW  30  30 100 VRB3      29.41S VSB 3/4
ALEXANDRIA     FLURRIES  35  26  69 W26G36    29.60R WCI  22
SAINT CLOUD    CLOUDY    36  29  75 W24G30    29.58S
MINNEAPOLIS    CLOUDY    37  28  70 W15G21    29.63S
$$

  *****  WEATHER ACROSS SOUTH DAKOTA  *****

CITY           SKY/WX    TMP DP  RH WIND       PRES   REMARKS
SIOUX FALLS    MOCLDY    35  25  66 W16G29    29.85R
BROOKINGS      CLOUDY    34  26  72 W23G31    29.77S WCI  22
WATERTOWN      PTCLDY    33  24  69 W21G31    29.74F WCI  21
HURON          CLOUDY    36  28  73 W22       29.86F
SISSETON         N/A     36  25  64 NW26G37   29.68R
ABERDEEN       PTCLDY    38  24  57 W17       29.79S
MITCHELL       CLOUDY    36  28  73 W17       29.91S
PIERRE         CLEAR     35  25  66 W23G31    29.93F WCI  23
MOBRIDGE       CLEAR     37  20  50 NW24G37   29.81F
RAPID CITY     PTCLDY    35  12  38 NW32G41   30.10R WCI  21
$$

  *****  SOME WEATHER IN NEARBY STATES *****

CITY           SKY/WX    TMP DP  RH WIND       PRES   REMARKS
GLASGOW MT     CLEAR     29  19  66 NW28G33   30.15R WCI  14
GREAT FALLS MT CLEAR     20  14  77 SW10      30.37R WCI   9
CHEYENNE WY    CLEAR     29  17  61 N8        30.17R WCI  21
SCOTTSBLUFF NE LGT SNOW  31  26  82 NW13G28   30.22R WCI  21
OMAHA NE       CLOUDY    39  26  59 NW16      29.93S
DES MOINES IA  MOCLDY    37  27  67 NW14      29.87S
DAVENPORT IA   CLOUDY    37  28  70 SW16G24   29.84R
CHICAGO IL     MOCLDY    39  29  67 SW15      29.85F
EAU CLAIRE WI  MOCLDY    30  25  81 SW8       29.61F WCI  22
LA CROSSE WI   CLEAR     34  27  75 SW12      29.70S
$$

  *****  SOME NATIONAL WEATHER *****

CITY           SKY/WX    TMP DP  RH WIND       PRES   REMARKS
LA GUARDIA NY  PTCLDY    37  24  59 CALM      30.20S
RALEIGH NC     CLOUDY    37  25  61 NE7       30.10S
ATLANTA GA     PTCLDY    31  20  63 NW12      30.15R WCI  22
NEW ORLEANS LA CLEAR     40  33  76 CALM      30.29S
OKLAHOMA CITY  CLOUDY    30  26  85 S9        30.14R WCI  22
ALBUQUERQUE NM CLOUDY    33  14  45 N8        30.34R
SALT LAKE CITY PTCLDY    25  19  78 CALM      30.53R
LOS ANGELES CA CLEAR     59  23  25 N3        30.12F
BOISE ID       CLEAR     28  26  92 N5        30.53R FOG     WCI  23
SEATTLE WA     MOCLDY    36  33  89 NE5       30.50F
$$

*** WEATHER ACROSS MANITOBA...SASKATCHEWAN AND ONTARIO ***
                ***ONTARIO***

CITY           SKY/WX    TMP DP  RH WIND       PRES   REMARKS
GERALDTON      LGT SNOW   0  -4  85 E14G21    29.73F VSB 1   WCI -19
THUNDER BAY    LGT SNOW  25  25 100 E13       29.54S VSB 1   WCI  13
SIOUX LOOKOUT  FLURRIES  14  10  85 E9G17     29.45R WCI   2
TORONTO        MOCLDY    30  23  74 S2        30.04F
BIG TROUT LK   PTCLDY   -18 -24  76 E8        29.92R WCI -37
PICKLE LAKE    LGT SNOW  -2  -8  78 E13G20    29.65F DRFTSNOWWCI -21
DRYDEN         LGT SNOW  23  21  93 NE10      29.38R WCI  12
KENORA         LGT SNOW  30  30 100 W3        29.34R FOG
$$
                *** MANITOBA***

CITY           SKY/WX    TMP DP  RH WIND       PRES   REMARKS
BRANDON        CLOUDY    28  23  80 NW28G41   29.60R WCI  13
DAUPHIN        CLOUDY    18  12  79 N22G29    29.71R WCI   0
ISLAND LAKE    NOT AVBL
PILOT MOUND      N/A     32  30  93 NW21G28     N/A  WCI  20
THE PAS        FLURRIES   5   0  78 NW16G25   29.86R WCI -14
THOMPSON       LGT SNOW  -9 -17  70 NE7       29.85R WCI -24
WINNIPEG       LGT SNOW  25  23  93 NW20G28   29.49R DRFTSNOWWCI  11
LYNN LAKE      CLOUDY    -8 -11  84 NW8       29.87R WCI -23
CHURCHILL      MOCLDY   -15 -22  70 E9        30.15R WCI -33
$$
                ***SASKATCHEWAN***

CITY           SKY/WX    TMP DP  RH WIND       PRES   REMARKS
ESTEVAN        CLOUDY    25  19  80 NW38G47   29.84R WCI   6
KINDERSLEY     CLEAR     21  14  73 W12G18    30.18R WCI   9
LLOYDMINSTER   CLEAR     23  16  74 W18G24    30.13R WCI   9
PRINCE ALBERT  FLURRIES  18  12  79 NW18G24   30.00R WCI   2
REGINA         CLOUDY    25  18  74 NW33G48   29.96R WCI   7
YORKTON        FLURRIES  19  12  73 NW36G44   29.79R WCI  -1
N. BATTLEFORD  CLEAR     25  16  68 NW15G21   30.12R WCI  12
LA RONGE       FLURRIES  12   7  79 W16       29.99R WCI  -4
SASKATOON      PTCLDY    25  19  80 NW16      30.07R WCI  12
SWIFT CURRENT  CLEAR     25  19  80 NW25G35   30.12R WCI   9
$$
NOTE: THESE ARE AUTOMATED STATIONS WITH LIMITED QUALITY CONTROL
      "FAIR" INDICATES FEW OR NO CLOUDS BELOW 12,000 FEET WITH NO
      SIGNIFICANT WEATHER AND/OR OBSTRUCTIONS TO VISIBILITY.
      SKY/WX - SKY CONDITION AND SIGNIFICANT WEATHER.
      TMP - AIR TEMPERATURE.    DP   - DEWPOINT TEMPERATURE.
      RH  - RELATIVE HUMIDITY.  PRES - PRESSURE.
      HX  - HEAT INDEX.         WCI  - WIND CHILL INDEX.
$



USA.gov is the U.S. government's official web portal to all federal, state and local government web resources and services.